Dewpoint
39 37 34 36 33 35 32 33 35 34 32 32 37 35 39 39 39 36 37 42 44 47 47 48 49 49 49 48 47 44 42 41 41 39 36 34 34 33 31 29 27 27 27 27
40 35 33 34 35 38 33 32 30 30 30 32 33 34 34 34 34 33 34 35 44 45 46 46 46 47 46 46 44 43 41 39 36 36 33 34 33 32 31 30 28 28 26 27
36 34 31 32 33 31 30 30 31 31 34 33 32 30 31 32 31 32 35 38 41 45 46 46 46 46 46 44 44 41 39 35 33 33 31 32 31 30 29 29 29 28 27 27
40 35 34 34 32 30 30 30 30 30 31 32 31 34 33 35 36 37 36 38 42 44 47 47 47 46 45 44 41 41 37 33 31 32 30 29 29 29 29 29 28 28 28 27
39 35 32 29 30 30 29 29 30 32 31 30 31 35 40 41 43 43 44 45 47 48 50 47 46 44 43 40 40 37 34 32 30 30 29 28 28 29 29 28 28 26 25 26
41 35 29 29 29 31 30 28 29 33 36 32 31 44 41 42 47 47 47 45 44 46 47 47 46 44 41 40 39 35 35 34 32 31 30 28 29 30 30 27 25 24 22 23
39 39 36 32 31 32 31 34 37 35 35 36 38 41 41 44 41 44 46 44 45 46 45 45 44 42 40 39 37 35 36 35 33 31 31 30 31 30 28 26 24 25 23 24
39 38 34 35 32 32 40 42 37 37 38 40 41 43 41 37 39 39 42 41 42 44 44 44 43 41 39 38 37 36 34 34 33 32 27 25 30 29 26 25 25 24 24 25
37 38 41 42 41 40 44 42 41 40 39 40 40 37 37 38 37 35 35 39 38 39 42 43 42 41 39 38 37 36 34 33 32 31 28 26 27 28 26 24 26 26 27 27
39 38 38 40 38 39 39 41 38 38 37 37 38 38 37 38 38 37 35 34 37 37 38 41 42 41 40 39 37 35 34 32 31 30 28 27 23 26 26 28 27 27 26 26
40 39 39 38 38 40 37 37 37 36 36 36 36 35 35 35 37 37 37 37 36 37 37 38 40 40 40 38 37 35 34 32 30 29 27 26 23 23 25 27 29 29 28 29
40 40 42 40 39 38 37 36 34 35 35 34 34 33 34 34 36 35 36 37 38 39 39 36 36 38 37 38 38 37 33 31 30 29 28 26 25 27 25 27 23 22 20 25
39 40 39 41 37 35 35 35 35 35 33 33 35 35 36 36 38 40 40 40 39 40 41 39 37 37 37 37 43 39 32 31 30 29 29 26 28 30 27 23 21 20 20 19
35 36 37 35 34 35 35 34 34 31 33 35 34 35 38 39 39 39 40 40 39 40 41 42 41 39 41 38 36 35 33 29 31 31 31 30 29 30 30 29 26 26 24 21
34 35 36 35 33 32 33 31 30 30 31 32 32 39 40 40 39 38 39 38 38 37 39 39 39 40 41 39 35 33 32 34 32 31 32 32 31 30 29 28 28 27 27 24
32 32 33 33 30 30 27 27 29 30 31 33 36 38 38 37 36 35 35 37 39 40 40 39 40 41 39 37 33 33 31 30 31 30 30 32 31 28 27 26 26 27 26 25
31 30 32 31 28 28 28 29 29 30 34 34 35 36 35 36 37 37 37 41 41 42 44 42 41 41 36 34 33 34 33 30 31 32 32 31 28 26 25 26 26 26 26 26
29 31 30 30 30 31 31 33 33 32 33 36 40 41 39 39 40 42 42 43 40 39 41 39 34 32 32 34 33 33 31 29 30 31 30 26 25 25 26 25 25 25 25 24
28 28 30 28 30 31 31 32 33 34 39 40 41 39 41 38 41 40 39 35 34 35 37 35 31 32 32 31 31 31 30 29 29 27 26 26 27 28 26 26 25 25 23 24
27 29 30 31 31 35 32 32 33 36 41 41 34 34 34 35 35 35 35 34 36 38 37 35 30 31 30 29 30 31 30 27 25 27 29 28 27 27 27 23 24 24 25 25
30 31 32 35 36 41 40 40 36 37 36 33 33 34 34 35 34 34 33 35 37 35 35 30 30 30 29 29 29 31 29 28 29 29 28 29 28 26 26 26 25 25 24 24
32 33 37 35 37 37 39 42 42 36 34 33 33 33 33 34 34 35 34 35 37 29 33 31 30 29 28 28 28 30 31 29 28 28 29 29 27 27 26 26 25 25 25 25
32 34 37 39 37 40 42 43 34 35 33 34 33 33 34 35 35 34 34 35 34 29 31 33 30 29 28 29 32 31 30 30 30 30 29 28 28 27 26 26 26 26 25 24
33 34 37 40 40 40 40 41 41 39 34 33 33 32 32 35 38 37 34 30 30 31 32 30 29 28 28 32 32 32 32 32 31 30 29 26 28 27 26 25 24 25 23 21
36 37 39 40 41 41 42 42 41 39 37 37 36 34 32 34 35 35 35 32 28 30 30 28 27 29 33 32 32 32 31 30 30 29 28 27 26 26 26 25 23 23 23 23
35 40 41 39 40 41 41 41 40 39 38 37 37 37 37 35 33 33 33 30 30 30 29 29 29 32 32 32 32 31 30 28 28 27 27 26 26 25 24 23 23 23 23 24
40 36 41 40 39 40 41 40 40 39 37 39 38 37 35 36 35 33 32 32 33 32 29 29 30 31 32 32 30 29 29 28 26 26 26 26 25 25 24 24 25 25 25 25
Lifted_Index
0 0 -0 -1 -1 -1 -1 -1 -1 -1 -1 -1 -1 0 1 1 2 2 2 1 1 1 1 2 2 3 4 4 5 6 6 6 7 9 11 11 12 15 17 18 18 18 18 19
-0 0 0 -0 -0 -0 -1 -1 -0 -0 -1 -1 -0 1 2 2 2 3 2 2 1 1 1 1 2 3 4 5 5 6 7 7 8 9 11 11 12 14 16 18 18 18 18 18
-0 -0 -0 0 0 0 0 -0 -0 0 0 0 1 2 3 3 4 3 3 3 2 1 1 1 2 3 4 5 6 6 7 8 8 9 10 11 12 13 15 17 18 18 18 18
-0 -0 0 0 1 1 1 1 1 1 1 2 3 3 4 4 4 4 3 3 2 1 1 2 2 3 4 5 6 7 7 7 8 9 10 10 11 12 14 16 17 18 18 18
0 0 0 1 1 2 2 2 2 2 2 3 4 4 4 4 4 3 3 3 2 2 1 2 3 3 4 5 6 6 6 7 8 9 9 10 10 11 13 16 17 18 18 18
1 1 1 2 2 2 2 2 2 2 3 4 4 4 4 4 4 3 3 2 2 2 2 2 3 4 4 5 5 5 6 7 8 9 9 10 10 11 13 15 17 18 18 18
1 1 1 2 2 3 3 3 3 3 4 4 4 4 4 4 4 3 3 3 3 3 3 3 4 4 5 5 6 6 7 7 8 8 9 10 10 12 13 15 16 17 17 18
1 1 2 2 2 3 2 2 3 3 4 4 4 4 4 4 4 4 3 3 3 3 4 4 4 5 5 5 6 7 7 7 7 8 9 10 10 11 12 14 15 16 16 17
1 1 1 2 2 2 2 2 3 3 4 4 4 4 4 4 4 4 4 3 3 4 4 4 5 5 5 6 6 6 6 6 7 7 8 9 9 9 11 12 14 15 16 16
1 1 1 2 2 2 3 3 3 3 3 4 4 4 4 3 3 3 3 3 3 4 4 4 5 5 6 6 6 6 6 6 6 7 7 8 8 9 10 12 13 14 15 16
1 1 1 2 2 2 3 3 3 3 4 4 4 4 4 3 3 3 3 3 3 3 4 4 5 5 5 6 6 6 5 5 5 6 7 7 8 9 11 13 14 14 16 17
1 1 1 2 2 3 3 3 3 4 4 4 4 4 4 4 3 3 3 3 3 3 3 3 4 4 5 5 5 5 4 4 5 6 6 7 7 9 11 13 14 15 17 17
1 1 2 2 2 3 3 3 4 4 4 4 4 4 4 4 3 3 3 3 3 3 3 3 3 3 4 4 4 4 4 4 5 6 6 7 7 7 9 11 13 15 17 18
2 2 2 2 3 3 3 4 4 5 5 5 4 4 4 3 3 3 3 3 3 3 3 2 2 2 3 3 3 4 4 5 5 6 7 7 8 7 8 10 11 13 16 18
3 3 3 3 3 4 4 5 5 5 5 5 4 4 3 3 3 3 3 3 3 4 3 3 2 2 2 3 3 4 4 5 6 7 8 9 9 8 9 10 11 13 16 17
4 4 4 4 5 5 5 6 6 6 5 5 4 3 3 3 3 3 3 3 4 4 4 4 3 3 3 3 4 4 5 6 6 7 8 9 9 9 10 11 11 14 17 18
5 5 5 5 6 6 6 6 6 6 5 4 3 3 3 3 3 3 3 4 4 5 5 4 4 3 3 4 4 5 5 6 6 7 8 9 9 10 11 11 12 15 17 18
6 6 6 6 6 6 6 6 5 5 4 4 3 3 4 4 4 4 4 5 5 5 5 4 4 4 4 4 5 5 5 5 6 7 8 8 9 11 11 12 14 17 18 18
6 6 6 6 6 6 5 5 5 4 4 3 4 4 4 4 4 4 4 4 5 5 4 4 4 4 5 5 5 5 5 5 5 7 8 9 10 11 12 14 16 18 18 19
6 6 6 6 5 5 5 5 4 4 4 4 4 4 4 4 4 4 4 4 4 4 4 4 5 5 5 5 6 6 5 5 6 7 9 10 10 11 13 15 17 18 19 19
5 5 5 5 4 4 4 5 5 5 4 4 4 4 4 4 4 4 4 4 4 4 4 4 5 5 5 6 6 6 5 6 7 8 10 10 11 13 15 17 18 18 19 19
4 4 4 4 4 4 4 4 4 5 5 4 4 4 3 3 3 3 3 3 3 3 3 4 4 5 5 6 6 6 6 7 9 10 11 12 13 15 17 18 18 19 19 19
3 4 4 4 4 4 3 3 4 4 4 4 4 3 3 3 2 3 3 3 2 2 3 3 4 5 6 6 7 7 8 9 10 11 12 14 16 17 18 18 19 19 19 19
3 3 3 3 3 3 3 3 3 3 4 3 3 2 2 2 2 2 3 2 2 2 3 3 4 5 6 7 8 8 9 10 11 13 15 16 17 18 18 19 19 19 20 20
3 3 3 3 3 3 3 3 3 3 3 2 1 1 1 2 2 2 2 2 2 2 3 4 5 6 7 8 9 10 11 12 14 15 17 17 18 18 19 19 19 20 20 20
3 3 3 3 3 3 2 2 2 2 1 1 1 1 1 2 2 2 3 3 3 3 3 4 6 7 8 9 10 11 13 14 16 17 17 18 18 18 19 19 20 20 20 20
3 3 3 3 3 3 2 2 1 1 1 0 0 1 1 2 2 3 3 3 3 3 4 5 6 7 8 9 11 12 14 16 17 17 18 18 18 19 19 20 20 21 21 21